"Sample Date","Sample Time","Sensor Name","Sample Value","Units","Flow Rate","Sample Interval","Sample Volume","Laser Status","Number Channels","Micron Size 0","Counts/Channel 0","Micron Size 1","Counts/Channel 1","Micron Size 2","Counts/Channel 2","Micron Size 3","Counts/Channel 3","Micron Size 4","Counts/Channel 4","Micron Size 5","Counts/Channel 5","Micron Size 6","Counts/Channel 6","Micron Size 7","Counts/Channel 7","Micron Size 8","Counts/Channel 8","Micron Size 9","Counts/Channel 9","Micron Size 10","Counts/Channel 10","Micron Size 11","Counts/Channel 11","Micron Size 12","Counts/Channel 12","Micron Size 13","Counts/Channel 13","Micron Size 14","Counts/Channel 14","Micron Size 15","Counts/Channel 15","Micron Size 16","Counts/Channel 16","Micron Size 17","Counts/Channel 17","Micron Size 18","Counts/Channel 18","Micron Size 19","Counts/Channel 19","Micron Size 20","Counts/Channel 20","Micron Size 21","Counts/Channel 21","Micron Size 22","Counts/Channel 22","Micron Size 23","Counts/Channel 23","Micron Size 24","Counts/Channel 24","Micron Size 25","Counts/Channel 25","Micron Size 26","Counts/Channel 26","Micron Size 27","Counts/Channel 27","Micron Size 28","Counts/Channel 28","Micron Size 29","Counts/Channel 29","Micron Size 30","Counts/Channel 30","Micron Size 31","Counts/Channel 31"
"07/10/06","07:00:02","AMMA06",36842.000,"cc",28346.996,6.00,2834.700,1,6,0.100,18611.000,0.200,15565.000,0.300,2514.000,0.500,118.000,1.000,34.000,5.000,0
"07/10/06","07:00:08","AMMA06",37355.000,"cc",28280.475,6.00,2828.048,1,6,0.100,19167.000,0.200,15487.000,0.300,2527.000,0.500,125.000,1.000,49.000,5.000,0
"07/10/06","07:00:14","AMMA06",37067.000,"cc",28323.611,6.00,2832.361,1,6,0.100,18891.000,0.200,15492.000,0.300,2512.000,0.500,128.000,1.000,44.000,5.000,0
"07/10/06","07:00:20","AMMA06",36742.000,"cc",28349.281,6.00,2834.928,1,6,0.100,18811.000,0.200,15249.000,0.300,2507.000,0.500,127.000,1.000,48.000,5.000,0
"07/10/06","07:00:26","AMMA06",36759.000,"cc",28290.309,6.00,2829.031,1,6,0.100,18719.000,0.200,15383.000,0.300,2490.000,0.500,127.000,1.000,40.000,5.000,0
"07/10/06","07:00:32","AMMA06",37026.000,"cc",28322.787,6.00,2832.279,1,6,0.100,18888.000,0.200,15337.000,0.300,2616.000,0.500,133.000,1.000,52.000,5.000,0
"07/10/06","07:00:38","AMMA06",36763.000,"cc",28302.240,6.00,2830.224,1,6,0.100,18952.000,0.200,15224.000,0.300,2416.000,0.500,122.000,1.000,49.000,5.000,0
"07/10/06","07:00:44","AMMA06",37015.000,"cc",28356.471,6.00,2835.647,1,6,0.100,19000.000,0.200,15299.000,0.300,2568.000,0.500,108.000,1.000,40.000,5.000,0
"07/10/06","07:00:50","AMMA06",37031.000,"cc",28283.945,6.00,2828.395,1,6,0.100,18879.000,0.200,15625.000,0.300,2354.000,0.500,119.000,1.000,54.000,5.000,0
"07/10/06","07:00:56","AMMA06",36727.000,"cc",28320.555,6.00,2832.056,1,6,0.100,18929.000,0.200,15173.000,0.300,2478.000,0.500,108.000,1.000,39.000,5.000,0
"07/10/06","07:01:02","AMMA06",37266.000,"cc",28341.441,6.00,2834.144,1,6,0.100,19200.000,0.200,15423.000,0.300,2480.000,0.500,119.000,1.000,44.000,5.000,0
"07/10/06","07:01:08","AMMA06",36998.000,"cc",28278.969,6.00,2827.897,1,6,0.100,19058.000,0.200,15312.000,0.300,2476.000,0.500,97.000,1.000,55.000,5.000,0
"07/10/06","07:01:14","AMMA06",37573.000,"cc",28297.662,6.00,2829.766,1,6,0.100,19330.000,0.200,15541.000,0.300,2534.000,0.500,127.000,1.000,41.000,5.000,0
"07/10/06","07:01:20","AMMA06",37054.000,"cc",28361.768,6.00,2836.177,1,6,0.100,19074.000,0.200,15425.000,0.300,2398.000,0.500,105.000,1.000,52.000,5.000,0
"07/10/06","07:01:26","AMMA06",36699.000,"cc",28326.279,6.00,2832.628,1,6,0.100,18982.000,0.200,15175.000,0.300,2374.000,0.500,125.000,1.000,43.000,5.000,0
"07/10/06","07:01:32","AMMA06",36906.000,"cc",28298.094,6.00,2829.810,1,6,0.100,18934.000,0.200,15286.000,0.300,2492.000,0.500,131.000,1.000,63.000,5.000,0
"07/10/06","07:01:38","AMMA06",37010.000,"cc",28356.375,6.00,2835.638,1,6,0.100,18917.000,0.200,15416.000,0.300,2491.000,0.500,138.000,1.000,48.000,5.000,0
"07/10/06","07:01:44","AMMA06",37101.000,"cc",28282.672,6.00,2828.267,1,6,0.100,19089.000,0.200,15458.000,0.300,2391.000,0.500,116.000,1.000,47.000,5.000,0
"07/10/06","07:01:50","AMMA06",36844.000,"cc",28322.924,6.00,2832.293,1,6,0.100,18917.000,0.200,15374.000,0.300,2391.000,0.500,121.000,1.000,41.000,5.000,0
"07/10/06","07:01:56","AMMA06",36796.000,"cc",28277.070,6.00,2827.707,1,6,0.100,19057.000,0.200,15141.000,0.300,2420.000,0.500,126.000,1.000,52.000,5.000,0
"07/10/06","07:02:02","AMMA06",37027.000,"cc",28324.404,6.00,2832.441,1,6,0.100,19123.000,0.200,15411.000,0.300,2321.000,0.500,112.000,1.000,60.000,5.000,0
"07/10/06","07:02:08","AMMA06",36816.000,"cc",28387.381,6.00,2838.738,1,6,0.100,19115.000,0.200,15187.000,0.300,2324.000,0.500,122.000,1.000,68.000,5.000,0
"07/10/06","07:02:14","AMMA06",36857.000,"cc",28296.240,6.00,2829.624,1,6,0.100,19090.000,0.200,15275.000,0.300,2341.000,0.500,109.000,1.000,42.000,5.000,0
"07/10/06","07:02:20","AMMA06",37164.000,"cc",28263.031,6.00,2826.303,1,6,0.100,19385.000,0.200,15278.000,0.300,2341.000,0.500,102.000,1.000,58.000,5.000,0
"07/10/06","07:02:26","AMMA06",36718.000,"cc",28342.918,6.00,2834.292,1,6,0.100,19047.000,0.200,15160.000,0.300,2350.000,0.500,119.000,1.000,42.000,5.000,0
"07/10/06","07:02:32","AMMA06",37014.000,"cc",28334.518,6.00,2833.452,1,6,0.100,19442.000,0.200,15025.000,0.300,2381.000,0.500,117.000,1.000,49.000,5.000,0
"07/10/06","07:02:38","AMMA06",37337.000,"cc",28343.549,6.00,2834.355,1,6,0.100,19408.000,0.200,15371.000,0.300,2376.000,0.500,134.000,1.000,48.000,5.000,0
"07/10/06","07:02:44","AMMA06",37186.000,"cc",28308.680,6.00,2830.868,1,6,0.100,19370.000,0.200,15313.000,0.300,2358.000,0.500,100.000,1.000,45.000,5.000,0
"07/10/06","07:02:50","AMMA06",37132.000,"cc",28353.914,6.00,2835.392,1,6,0.100,19261.000,0.200,15333.000,0.300,2377.000,0.500,107.000,1.000,54.000,5.000,0
"07/10/06","07:02:56","AMMA06",37231.000,"cc",28263.758,6.00,2826.376,1,6,0.100,19359.000,0.200,15257.000,0.300,2436.000,0.500,124.000,1.000,55.000,5.000,0
"07/10/06","07:03:02","AMMA06",37269.000,"cc",28303.736,6.00,2830.374,1,6,0.100,19371.000,0.200,15402.000,0.300,2339.000,0.500,110.000,1.000,47.000,5.000,0
"07/10/06","07:03:08","AMMA06",37249.000,"cc",28289.492,6.00,2828.950,1,6,0.100,19301.000,0.200,15403.000,0.300,2399.000,0.500,107.000,1.000,39.000,5.000,0
"07/10/06","07:03:14","AMMA06",37250.000,"cc",28298.756,6.00,2829.876,1,6,0.100,19468.000,0.200,15287.000,0.300,2322.000,0.500,131.000,1.000,42.000,5.000,0
"07/10/06","07:03:20","AMMA06",37354.000,"cc",28336.576,6.00,2833.658,1,6,0.100,19426.000,0.200,15370.000,0.300,2381.000,0.500,126.000,1.000,51.000,5.000,0
"07/10/06","07:03:26","AMMA06",37467.000,"cc",28305.668,6.00,2830.567,1,6,0.100,19354.000,0.200,15529.000,0.300,2404.000,0.500,131.000,1.000,49.000,5.000,0
"07/10/06","07:03:32","AMMA06",37218.000,"cc",28326.266,6.00,2832.627,1,6,0.100,19242.000,0.200,15445.000,0.300,2399.000,0.500,91.000,1.000,41.000,5.000,0
"07/10/06","07:03:38","AMMA06",37375.000,"cc",28333.680,6.00,2833.368,1,6,0.100,19260.000,0.200,15604.000,0.300,2340.000,0.500,119.000,1.000,52.000,5.000,0
"07/10/06","07:03:44","AMMA06",37181.000,"cc",28309.656,6.00,2830.966,1,6,0.100,19318.000,0.200,15342.000,0.300,2356.000,0.500,116.000,1.000,49.000,5.000,0
"07/10/06","07:03:50","AMMA06",37361.000,"cc",28328.836,6.00,2832.884,1,6,0.100,19327.000,0.200,15513.000,0.300,2362.000,0.500,110.000,1.000,49.000,5.000,0
"07/10/06","07:03:56","AMMA06",37397.000,"cc",28332.152,6.00,2833.215,1,6,0.100,19469.000,0.200,15402.000,0.300,2362.000,0.500,127.000,1.000,37.000,5.000,0
"07/10/06","07:04:02","AMMA06",37359.000,"cc",28347.498,6.00,2834.750,1,6,0.100,19240.000,0.200,15641.000,0.300,2343.000,0.500,98.000,1.000,37.000,5.000,0
"07/10/06","07:04:08","AMMA06",37414.000,"cc",28309.781,6.00,2830.978,1,6,0.100,19311.000,0.200,15503.000,0.300,2415.000,0.500,122.000,1.000,63.000,5.000,0
"07/10/06","07:04:14","AMMA06",37359.000,"cc",28276.275,6.00,2827.628,1,6,0.100,19307.000,0.200,15540.000,0.300,2358.000,0.500,99.000,1.000,55.000,5.000,0
"07/10/06","07:04:20","AMMA06",37153.000,"cc",28281.641,6.00,2828.164,1,6,0.100,19188.000,0.200,15405.000,0.300,2415.000,0.500,104.000,1.000,41.000,5.000,0
"07/10/06","07:04:26","AMMA06",37396.000,"cc",28331.416,6.00,2833.142,1,6,0.100,19225.000,0.200,15553.000,0.300,2453.000,0.500,119.000,1.000,46.000,5.000,0
"07/10/06","07:04:32","AMMA06",37514.000,"cc",28299.139,6.00,2829.914,1,6,0.100,19120.000,0.200,15779.000,0.300,2470.000,0.500,94.000,1.000,51.000,5.000,0
"07/10/06","07:04:38","AMMA06",37411.000,"cc",28309.557,6.00,2830.956,1,6,0.100,19188.000,0.200,15591.000,0.300,2450.000,0.500,128.000,1.000,54.000,5.000,0
"07/10/06","07:04:44","AMMA06",37180.000,"cc",28379.742,6.00,2837.974,1,6,0.100,18973.000,0.200,15498.000,0.300,2536.000,0.500,118.000,1.000,55.000,5.000,0
"07/10/06","07:04:50","AMMA06",37340.000,"cc",28360.752,6.00,2836.075,1,6,0.100,19354.000,0.200,15248.000,0.300,2556.000,0.500,140.000,1.000,42.000,5.000,0
"07/10/06","07:04:56","AMMA06",37043.000,"cc",28326.639,6.00,2832.664,1,6,0.100,18811.000,0.200,15636.000,0.300,2454.000,0.500,102.000,1.000,40.000,5.000,0
"07/10/06","07:05:02","AMMA06",37406.000,"cc",28313.475,6.00,2831.348,1,6,0.100,18876.000,0.200,15776.000,0.300,2570.000,0.500,130.000,1.000,54.000,5.000,0
"07/10/06","07:05:08","AMMA06",37592.000,"cc",28268.027,6.00,2826.803,1,6,0.100,18961.000,0.200,15936.000,0.300,2521.000,0.500,121.000,1.000,53.000,5.000,0
"07/10/06","07:05:14","AMMA06",37381.000,"cc",28317.299,6.00,2831.730,1,6,0.100,19016.000,0.200,15715.000,0.300,2497.000,0.500,112.000,1.000,41.000,5.000,0
"07/10/06","07:05:20","AMMA06",37497.000,"cc",28289.262,6.00,2828.926,1,6,0.100,19084.000,0.200,15594.000,0.300,2640.000,0.500,138.000,1.000,41.000,5.000,0
"07/10/06","07:05:26","AMMA06",37251.000,"cc",28345.758,6.00,2834.576,1,6,0.100,19009.000,0.200,15491.000,0.300,2605.000,0.500,98.000,1.000,48.000,5.000,0
"07/10/06","07:05:32","AMMA06",37275.000,"cc",28307.174,6.00,2830.718,1,6,0.100,18834.000,0.200,15723.000,0.300,2558.000,0.500,111.000,1.000,49.000,5.000,0
"07/10/06","07:05:38","AMMA06",37755.000,"cc",28299.166,6.00,2829.917,1,6,0.100,19166.000,0.200,15846.000,0.300,2574.000,0.500,113.000,1.000,56.000,5.000,0
"07/10/06","07:05:44","AMMA06",38220.000,"cc",28375.582,6.00,2837.558,1,6,0.100,19370.000,0.200,16061.000,0.300,2610.000,0.500,136.000,1.000,43.000,5.000,0
"07/10/06","07:05:50","AMMA06",37891.000,"cc",28336.221,6.00,2833.622,1,6,0.100,19296.000,0.200,15865.000,0.300,2549.000,0.500,129.000,1.000,52.000,5.000,0
"07/10/06","07:05:56","AMMA06",38089.000,"cc",28335.045,6.00,2833.505,1,6,0.100,19253.000,0.200,16097.000,0.300,2567.000,0.500,131.000,1.000,41.000,5.000,0
"07/10/06","07:06:02","AMMA06",37714.000,"cc",28284.926,6.00,2828.493,1,6,0.100,19129.000,0.200,15816.000,0.300,2602.000,0.500,120.000,1.000,47.000,5.000,0
"07/10/06","07:06:08","AMMA06",38012.000,"cc",28318.344,6.00,2831.835,1,6,0.100,19152.000,0.200,16081.000,0.300,2604.000,0.500,120.000,1.000,55.000,5.000,0
"07/10/06","07:06:14","AMMA06",38066.000,"cc",28323.461,6.00,2832.346,1,6,0.100,19352.000,0.200,15856.000,0.300,2703.000,0.500,105.000,1.000,50.000,5.000,0
"07/10/06","07:06:20","AMMA06",38241.000,"cc",28314.916,6.00,2831.492,1,6,0.100,19559.000,0.200,15950.000,0.300,2568.000,0.500,117.000,1.000,47.000,5.000,0
"07/10/06","07:06:26","AMMA06",37609.000,"cc",28271.727,6.00,2827.173,1,6,0.100,19066.000,0.200,15793.000,0.300,2571.000,0.500,127.000,1.000,52.000,5.000,0
"07/10/06","07:06:32","AMMA06",37889.000,"cc",28308.621,6.00,2830.862,1,6,0.100,19153.000,0.200,15967.000,0.300,2614.000,0.500,116.000,1.000,39.000,5.000,0
"07/10/06","07:06:38","AMMA06",38218.000,"cc",28319.723,6.00,2831.972,1,6,0.100,19530.000,0.200,15922.000,0.300,2587.000,0.500,125.000,1.000,54.000,5.000,0
"07/10/06","07:06:44","AMMA06",37993.000,"cc",28323.945,6.00,2832.395,1,6,0.100,19435.000,0.200,15928.000,0.300,2474.000,0.500,108.000,1.000,48.000,5.000,0
"07/10/06","07:06:50","AMMA06",37475.000,"cc",28338.246,6.00,2833.825,1,6,0.100,19191.000,0.200,15584.000,0.300,2536.000,0.500,119.000,1.000,45.000,5.000,0
"07/10/06","07:06:56","AMMA06",37991.000,"cc",28302.143,6.00,2830.214,1,6,0.100,19289.000,0.200,15982.000,0.300,2552.000,0.500,118.000,1.000,50.000,5.000,0
"07/10/06","07:07:02","AMMA06",37754.000,"cc",28286.570,6.00,2828.657,1,6,0.100,19320.000,0.200,15739.000,0.300,2552.000,0.500,98.000,1.000,45.000,5.000,0
"07/10/06","07:07:08","AMMA06",38201.000,"cc",28355.619,6.00,2835.562,1,6,0.100,19734.000,0.200,15871.000,0.300,2437.000,0.500,109.000,1.000,50.000,5.000,0
"07/10/06","07:07:14","AMMA06",37773.000,"cc",28330.711,6.00,2833.071,1,6,0.100,19187.000,0.200,15829.000,0.300,2574.000,0.500,128.000,1.000,55.000,5.000,0
"07/10/06","07:07:20","AMMA06",38307.000,"cc",28282.861,6.00,2828.286,1,6,0.100,19658.000,0.200,15995.000,0.300,2487.000,0.500,122.000,1.000,45.000,5.000,0
"07/10/06","07:07:26","AMMA06",38237.000,"cc",28341.102,6.00,2834.110,1,6,0.100,19540.000,0.200,15951.000,0.300,2559.000,0.500,139.000,1.000,48.000,5.000,0
"07/10/06","07:07:32","AMMA06",37738.000,"cc",28296.234,6.00,2829.624,1,6,0.100,19285.000,0.200,15745.000,0.300,2543.000,0.500,120.000,1.000,45.000,5.000,0
"07/10/06","07:07:38","AMMA06",37999.000,"cc",28297.408,6.00,2829.741,1,6,0.100,19511.000,0.200,15839.000,0.300,2483.000,0.500,128.000,1.000,38.000,5.000,0
"07/10/06","07:07:44","AMMA06",37932.000,"cc",28324.359,6.00,2832.436,1,6,0.100,19615.000,0.200,15731.000,0.300,2422.000,0.500,107.000,1.000,57.000,5.000,0
"07/10/06","07:07:50","AMMA06",38039.000,"cc",28298.768,6.00,2829.877,1,6,0.100,19542.000,0.200,15782.000,0.300,2521.000,0.500,136.000,1.000,58.000,5.000,0
"07/10/06","07:07:56","AMMA06",37772.000,"cc",28358.320,6.00,2835.832,1,6,0.100,19446.000,0.200,15691.000,0.300,2460.000,0.500,129.000,1.000,46.000,5.000,0
"07/10/06","07:08:02","AMMA06",37745.000,"cc",28341.617,6.00,2834.162,1,6,0.100,19461.000,0.200,15653.000,0.300,2469.000,0.500,119.000,1.000,43.000,5.000,0
"07/10/06","07:08:08","AMMA06",37475.000,"cc",28313.084,6.00,2831.309,1,6,0.100,19263.000,0.200,15513.000,0.300,2508.000,0.500,136.000,1.000,55.000,5.000,0
"07/10/06","07:08:14","AMMA06",37715.000,"cc",28291.102,6.00,2829.110,1,6,0.100,19588.000,0.200,15425.000,0.300,2515.000,0.500,135.000,1.000,52.000,5.000,0
"07/10/06","07:08:20","AMMA06",38201.000,"cc",28297.680,6.00,2829.768,1,6,0.100,19822.000,0.200,15636.000,0.300,2557.000,0.500,122.000,1.000,64.000,5.000,0
"07/10/06","07:08:26","AMMA06",37817.000,"cc",28321.785,6.00,2832.179,1,6,0.100,19502.000,0.200,15628.000,0.300,2522.000,0.500,118.000,1.000,47.000,5.000,0
"07/10/06","07:08:32","AMMA06",37916.000,"cc",28312.621,6.00,2831.262,1,6,0.100,19490.000,0.200,15757.000,0.300,2510.000,0.500,127.000,1.000,32.000,5.000,0
"07/10/06","07:08:38","AMMA06",38070.000,"cc",28340.697,6.00,2834.070,1,6,0.100,19534.000,0.200,15758.000,0.300,2616.000,0.500,116.000,1.000,46.000,5.000,0
"07/10/06","07:08:44","AMMA06",38025.000,"cc",28318.031,6.00,2831.803,1,6,0.100,19580.000,0.200,15824.000,0.300,2469.000,0.500,102.000,1.000,50.000,5.000,0
"07/10/06","07:08:50","AMMA06",38125.000,"cc",28323.125,6.00,2832.313,1,6,0.100,19456.000,0.200,15988.000,0.300,2519.000,0.500,112.000,1.000,50.000,5.000,0
"07/10/06","07:08:56","AMMA06",38266.000,"cc",28370.447,6.00,2837.045,1,6,0.100,19498.000,0.200,16085.000,0.300,2503.000,0.500,123.000,1.000,57.000,5.000,0
"07/10/06","07:09:02","AMMA06",37809.000,"cc",28319.254,6.00,2831.926,1,6,0.100,19522.000,0.200,15653.000,0.300,2460.000,0.500,124.000,1.000,50.000,5.000,0
"07/10/06","07:09:08","AMMA06",37965.000,"cc",28266.043,6.00,2826.605,1,6,0.100,19540.000,0.200,15663.000,0.300,2608.000,0.500,107.000,1.000,47.000,5.000,0
"07/10/06","07:09:14","AMMA06",38107.000,"cc",28316.982,6.00,2831.699,1,6,0.100,19578.000,0.200,15846.000,0.300,2502.000,0.500,136.000,1.000,45.000,5.000,0
"07/10/06","07:09:20","AMMA06",37942.000,"cc",28304.463,6.00,2830.447,1,6,0.100,19460.000,0.200,15829.000,0.300,2497.000,0.500,111.000,1.000,45.000,5.000,0
"07/10/06","07:09:26","AMMA06",37750.000,"cc",28339.430,6.00,2833.943,1,6,0.100,19399.000,0.200,15682.000,0.300,2480.000,0.500,140.000,1.000,49.000,5.000,0
"07/10/06","07:09:32","AMMA06",38607.000,"cc",28309.422,6.00,2830.942,1,6,0.100,19739.000,0.200,16160.000,0.300,2532.000,0.500,122.000,1.000,54.000,5.000,0
"07/10/06","07:09:38","AMMA06",37862.000,"cc",28335.445,6.00,2833.545,1,6,0.100,19294.000,0.200,15761.000,0.300,2632.000,0.500,114.000,1.000,61.000,5.000,0
"07/10/06","07:09:44","AMMA06",38097.000,"cc",28297.760,6.00,2829.776,1,6,0.100,19442.000,0.200,15929.000,0.300,2564.000,0.500,118.000,1.000,44.000,5.000,0
"07/10/06","07:09:50","AMMA06",38108.000,"cc",28289.557,6.00,2828.956,1,6,0.100,19535.000,0.200,15829.000,0.300,2576.000,0.500,115.000,1.000,53.000,5.000,0
"07/10/06","07:09:56","AMMA06",37799.000,"cc",28398.359,6.00,2839.836,1,6,0.100,19264.000,0.200,15850.000,0.300,2499.000,0.500,135.000,1.000,51.000,5.000,0
"07/10/06","07:10:02","AMMA06",38158.000,"cc",28305.580,6.00,2830.558,1,6,0.100,19607.000,0.200,15803.000,0.300,2584.000,0.500,119.000,1.000,45.000,5.000,0
"07/10/06","07:10:08","AMMA06",38053.000,"cc",28287.563,6.00,2828.756,1,6,0.100,19263.000,0.200,15986.000,0.300,2634.000,0.500,114.000,1.000,56.000,5.000,0
"07/10/06","07:10:14","AMMA06",38324.000,"cc",28259.932,6.00,2825.993,1,6,0.100,19554.000,0.200,15941.000,0.300,2661.000,0.500,116.000,1.000,52.000,5.000,0
"07/10/06","07:10:20","AMMA06",38166.000,"cc",28302.168,6.00,2830.217,1,6,0.100,19502.000,0.200,15907.000,0.300,2587.000,0.500,109.000,1.000,61.000,5.000,0
"07/10/06","07:10:26","AMMA06",38197.000,"cc",28364.082,6.00,2836.408,1,6,0.100,19506.000,0.200,15950.000,0.300,2556.000,0.500,127.000,1.000,58.000,5.000,0
"07/10/06","07:10:32","AMMA06",38189.000,"cc",28287.523,6.00,2828.752,1,6,0.100,19514.000,0.200,15929.000,0.300,2579.000,0.500,122.000,1.000,45.000,5.000,0
"07/10/06","07:10:38","AMMA06",38442.000,"cc",28270.084,6.00,2827.009,1,6,0.100,19477.000,0.200,16138.000,0.300,2643.000,0.500,133.000,1.000,51.000,5.000,0
"07/10/06","07:10:44","AMMA06",38438.000,"cc",28359.881,6.00,2835.988,1,6,0.100,19420.000,0.200,16195.000,0.300,2656.000,0.500,129.000,1.000,38.000,5.000,0
"07/10/06","07:10:50","AMMA06",38274.000,"cc",28314.486,6.00,2831.449,1,6,0.100,19507.000,0.200,16044.000,0.300,2544.000,0.500,130.000,1.000,49.000,5.000,0
"07/10/06","07:10:56","AMMA06",38078.000,"cc",28341.107,6.00,2834.111,1,6,0.100,19397.000,0.200,15873.000,0.300,2621.000,0.500,120.000,1.000,67.000,5.000,0
"07/10/06","07:11:02","AMMA06",38234.000,"cc",28312.781,6.00,2831.278,1,6,0.100,19444.000,0.200,15992.000,0.300,2636.000,0.500,112.000,1.000,50.000,5.000,0
"07/10/06","07:11:08","AMMA06",38339.000,"cc",28333.051,6.00,2833.305,1,6,0.100,19572.000,0.200,16003.000,0.300,2600.000,0.500,116.000,1.000,48.000,5.000,0
"07/10/06","07:11:14","AMMA06",37807.000,"cc",28333.123,6.00,2833.313,1,6,0.100,19078.000,0.200,15939.000,0.300,2588.000,0.500,140.000,1.000,62.000,5.000,0
"07/10/06","07:11:20","AMMA06",38030.000,"cc",28271.842,6.00,2827.184,1,6,0.100,19377.000,0.200,15847.000,0.300,2622.000,0.500,125.000,1.000,59.000,5.000,0
"07/10/06","07:11:26","AMMA06",38264.000,"cc",28348.223,6.00,2834.823,1,6,0.100,19169.000,0.200,16316.000,0.300,2611.000,0.500,118.000,1.000,49.000,5.000,1.000
"07/10/06","07:11:32","AMMA06",38358.000,"cc",28323.490,6.00,2832.349,1,6,0.100,19114.000,0.200,16378.000,0.300,2667.000,0.500,151.000,1.000,48.000,5.000,0
"07/10/06","07:11:38","AMMA06",37777.000,"cc",28335.775,6.00,2833.578,1,6,0.100,18975.000,0.200,16021.000,0.300,2593.000,0.500,137.000,1.000,51.000,5.000,0
"07/10/06","07:11:44","AMMA06",37887.000,"cc",28293.260,6.00,2829.326,1,6,0.100,18855.000,0.200,16179.000,0.300,2685.000,0.500,125.000,1.000,43.000,5.000,0
"07/10/06","07:11:50","AMMA06",38147.000,"cc",28295.957,6.00,2829.596,1,6,0.100,18963.000,0.200,16270.000,0.300,2725.000,0.500,135.000,1.000,54.000,5.000,0
"07/10/06","07:11:56","AMMA06",38773.000,"cc",28314.539,6.00,2831.454,1,6,0.100,19469.000,0.200,16373.000,0.300,2746.000,0.500,131.000,1.000,54.000,5.000,0
"07/10/06","07:12:02","AMMA06",38639.000,"cc",28347.732,6.00,2834.773,1,6,0.100,19297.000,0.200,16411.000,0.300,2754.000,0.500,125.000,1.000,52.000,5.000,0
"07/10/06","07:12:08","AMMA06",38361.000,"cc",28334.393,6.00,2833.440,1,6,0.100,19072.000,0.200,16436.000,0.300,2652.000,0.500,146.000,1.000,55.000,5.000,0
"07/10/06","07:12:14","AMMA06",38091.000,"cc",28269.799,6.00,2826.980,1,6,0.100,19189.000,0.200,16048.000,0.300,2686.000,0.500,118.000,1.000,50.000,5.000,0
"07/10/06","07:12:20","AMMA06",37973.000,"cc",28311.256,6.00,2831.126,1,6,0.100,19111.000,0.200,15944.000,0.300,2753.000,0.500,104.000,1.000,61.000,5.000,0
"07/10/06","07:12:26","AMMA06",38371.000,"cc",28255.609,6.00,2825.561,1,6,0.100,19254.000,0.200,16235.000,0.300,2702.000,0.500,128.000,1.000,52.000,5.000,0
"07/10/06","07:12:32","AMMA06",38034.000,"cc",28344.461,6.00,2834.446,1,6,0.100,19125.000,0.200,16065.000,0.300,2662.000,0.500,126.000,1.000,56.000,5.000,0
"07/10/06","07:12:38","AMMA06",38073.000,"cc",28347.397,6.00,2834.740,1,6,0.100,19116.000,0.200,16137.000,0.300,2658.000,0.500,108.000,1.000,54.000,5.000,0
"07/10/06","07:12:44","AMMA06",38441.000,"cc",28325.963,6.00,2832.596,1,6,0.100,19422.000,0.200,16192.000,0.300,2642.000,0.500,130.000,1.000,55.000,5.000,0
"07/10/06","07:12:50","AMMA06",38167.000,"cc",28320.565,6.00,2832.057,1,6,0.100,19387.000,0.200,15994.000,0.300,2605.000,0.500,122.000,1.000,59.000,5.000,0
"07/10/06","07:12:56","AMMA06",38485.000,"cc",28292.420,6.00,2829.242,1,6,0.100,19718.000,0.200,15991.000,0.300,2608.000,0.500,126.000,1.000,42.000,5.000,0
"07/10/06","07:13:02","AMMA06",38125.000,"cc",28352.381,6.00,2835.238,1,6,0.100,19361.000,0.200,16000.000,0.300,2588.000,0.500,130.000,1.000,46.000,5.000,0
"07/10/06","07:13:08","AMMA06",38149.000,"cc",28339.482,6.00,2833.949,1,6,0.100,19379.000,0.200,16028.000,0.300,2552.000,0.500,128.000,1.000,62.000,5.000,0
"07/10/06","07:13:14","AMMA06",37986.000,"cc",28283.018,6.00,2828.302,1,6,0.100,19360.000,0.200,15880.000,0.300,2571.000,0.500,117.000,1.000,58.000,5.000,0
"07/10/06","07:13:20","AMMA06",38195.000,"cc",28284.568,6.00,2828.457,1,6,0.100,19366.000,0.200,16087.000,0.300,2587.000,0.500,104.000,1.000,51.000,5.000,0
"07/10/06","07:13:26","AMMA06",38243.000,"cc",28341.979,6.00,2834.198,1,6,0.100,19578.000,0.200,15853.000,0.300,2643.000,0.500,126.000,1.000,43.000,5.000,0
"07/10/06","07:13:32","AMMA06",38416.000,"cc",28296.660,6.00,2829.666,1,6,0.100,19783.000,0.200,15875.000,0.300,2593.000,0.500,107.000,1.000,58.000,5.000,0
"07/10/06","07:13:38","AMMA06",38189.000,"cc",28324.137,6.00,2832.414,1,6,0.100,19575.000,0.200,15944.000,0.300,2511.000,0.500,108.000,1.000,51.000,5.000,0
"07/10/06","07:13:44","AMMA06",38170.000,"cc",28307.992,6.00,2830.799,1,6,0.100,19484.000,0.200,15929.000,0.300,2576.000,0.500,132.000,1.000,49.000,5.000,0
"07/10/06","07:13:50","AMMA06",38183.000,"cc",28337.588,6.00,2833.759,1,6,0.100,19709.000,0.200,15874.000,0.300,2455.000,0.500,105.000,1.000,40.000,5.000,0
"07/10/06","07:13:56","AMMA06",38003.000,"cc",28334.127,6.00,2833.413,1,6,0.100,19547.000,0.200,15803.000,0.300,2495.000,0.500,122.000,1.000,36.000,5.000,0
"07/10/06","07:14:02","AMMA06",38263.000,"cc",28313.992,6.00,2831.399,1,6,0.100,19812.000,0.200,15796.000,0.300,2476.000,0.500,126.000,1.000,53.000,5.000,0
"07/10/06","07:14:08","AMMA06",38328.000,"cc",28284.977,6.00,2828.498,1,6,0.100,19723.000,0.200,15944.000,0.300,2487.000,0.500,125.000,1.000,49.000,5.000,0
"07/10/06","07:14:14","AMMA06",38210.000,"cc",28309.400,6.00,2830.940,1,6,0.100,19810.000,0.200,15700.000,0.300,2529.000,0.500,125.000,1.000,46.000,5.000,0
"07/10/06","07:14:20","AMMA06",38439.000,"cc",28315.916,6.00,2831.592,1,6,0.100,19861.000,0.200,15878.000,0.300,2530.000,0.500,126.000,1.000,44.000,5.000,0